Regional Weather Roundup
Issued by NWS Portland, ME

Home | Current Version | Previous Version | Text Only | Print | Product List | Glossary On
Versions: 1 2 3 4 5 6 7 8 9 10 11 12 13 14 15 16 17 18 19 20 21 22 23 24 25 26 27 28 29 30 31 32 33 34 35 36 37 38 39 40 41 42 43 44 45 46 47 48 49 50
000
ASUS41 KGYX 220510
RWRGYX
WEATHER ROUNDUP FOR MAINE AND NEW HAMPSHIRE
NATIONAL WEATHER SERVICE GRAY ME
100 AM EDT TUE AUG 22 2017

MEZ002-005-006-010-012-015-018-020-021-024-026-027-029-220600-
MAINE

CITY           SKY/WX    TMP DP  RH WIND       PRES   REMARKS
PORTLAND       CLEAR     68  62  81 CALM      30.03R
SANFORD        CLEAR     61  60  97 S3        30.04F
BAR HARBOR     CLEAR     63  60  90 SW6       30.02R
WISCASSET      CLEAR     62  60  93 CALM      30.04R
ROCKLAND       CLEAR     59  59 100 CALM      30.02R
FRYEBURG       CLEAR     65  60  84 CALM      30.04R
LEWISTONAUBURN PTCLDY    63  62  97 CALM      30.04R
AUGUSTA        CLEAR     66  63  90 SW3       30.03R
WATERVILLE     CLEAR     64  63  94 CALM      29.99S FOG
BANGOR         CLEAR     68  63  84 S3        30.00S
GREENVILLE       N/A     65  58  78 CALM      30.01S
MILLINOCKET    CLEAR     62  60  93 CALM      29.99S
HOULTON        CLOUDY    67  60  78 S6        29.95S
PRESQUE ISLE   CLOUDY    69  61  75 W7        29.95R
FRENCHVILLE    CLEAR     67  60  78 W12       29.93S
CARIBOU        CLOUDY    68  60  75 W5        29.93R
$$

NHZ002-005-008-009-011-012-014-220600-
NEW HAMPSHIRE

CITY           SKY/WX    TMP DP  RH WIND       PRES   REMARKS
PORTSMOUTH     CLEAR     69  63  81 CALM      30.03S
ROCHESTER      CLEAR     68  61  78 CALM      30.04S
NASHUA         CLEAR     70  65  84 CALM      30.06S
MANCHESTER     CLEAR     70  63  78 S5        30.04S
CONCORD        CLEAR     63  61  93 CALM      30.06R
LACONIA        CLEAR     66  61  84 CALM      30.06R
PLYMOUTH       FAIR      58  57  96 CALM      30.06S FOG
BERLIN         CLEAR     58  54  86 CALM      30.07R
WHITEFIELD     CLEAR     58  55  90 CALM      30.06S
JAFFREY        CLEAR     69  66  90 CALM      30.10S
KEENE            N/A    N/A N/A N/A MISG        N/A
LEBANON        CLEAR     62  61  96 CALM      30.06R FOG
MT WASHINGTON  FOG       52  52 100 W36         N/A  VSB 1/16
$$

VTZ005-007-008-220600-
VERMONT

CITY           SKY/WX    TMP DP  RH WIND       PRES   REMARKS
ST JOHNSBURY     N/A     62  62 100 MISG      30.04S
MONTPELIER     CLEAR     63  61  93 CALM      30.09F
BURLINGTON     CLEAR     73  64  73 S6        30.02S
$$

MAZ007-012-024-CTZ003-RIZ002-NYZ038-NYZ072-220600-
SOUTHERN NEW ENGLAND AND NY

CITY           SKY/WX    TMP DP  RH WIND       PRES   REMARKS
BOSTON         CLEAR     74  64  71 SW12      30.05F
WORCESTER      CLEAR     68  62  81 SW10      30.09F
NANTUCKET      CLEAR     68  68 100 SW8       30.11S
PROVIDENCE     CLEAR     73  67  81 SW5       30.08F
HARTFORD       PTCLDY    71  66  84 S7        30.07F
ALBANY         PTCLDY    71  67  87 S3        30.04F
NEW YORK CITY  PTCLDY    78  72  81 SW10      30.08F
$$

ANZ081-ANZ082-ANZ150-NHZ014-MEZ023>029-220600-
COASTAL MARINE OBSERVATIONS

STATION/POSITION TIME  TEMP    WIND        PRES    WAVE
                       AIR SEA DIR/SP/G            HT/PER
                 (UTC) (F)     (DEG/KT/KT) (MB)    (FT/S)
MOUNT DESERT ROC 0500   61                 1016.6R
MATINICUS ROCK   0400   66     230/ 17/ 17 1015.9F
ISLE OF SHOALS   0400   73     220/ 17/ 17 1016.9R
JEFFREYS LEDGE   0406      65                N/A     1/14
CASHES LEDGE BUO 0350   69 69              1016.5    2/ 3
GEORGES BANK BUO 0350   67 65              1019.0    2/ 7
$$

.............KEY..............
   WCI - WIND CHILL
   TC  - TEMPERATURE IN CELSIUS
   VSB - VISIBILITY IN MILES
   HX  - HEAT INDEX
   FAIR- INDICATES FEW OR NO CLOUDS BELOW 12,000 FT, WITH NO
         SIGNIFICANT WEATHER AND/OR OBSTRUCTIONS TO VISIBILITY.






USA.gov is the U.S. government's official web portal to all federal, state and local government web resources and services.